Flag for Canada Weather past 2 weeks in Cranbrook, British Columbia, Canada

Now
54 °F

Passing clouds.


Feels Like: 52 °F
Forecast: 41 / 75 °F
Wind: 7 mph from West

Location: Cranbrook

Current Time: Apr 27, 2015 at 11:54:43 PM

Latest Report: Apr 27, 2015 at 11:00 PM


Visibility: 25 mi

Pressure: 30.23 "Hg

Humidity: 44%

Dew point: 32 °F

Location of CranbrookLocation

Historic Weather in Cranbrook — Graph

°F

Cranbrook temperature yesterday

Maximum temperature yesterday: 54 °F (at 3:00 PM)
Minimum temperature yesterday: 36 °F (at 6:00 AM)
Average temperature yesterday: 44 °F

Past Weeks' High & Low Weather Summary

 TemperatureHumidityPressure
High70 °F (Apr 21, 4:00 PM)87% (Apr 14, 4:00 AM)30.40 "Hg (Apr 14, 4:00 AM)
Low25 °F (Apr 15, 7:00 AM)19% (Apr 18, 6:00 PM)29.69 "Hg (Apr 24, 6:00 AM)
Average46 °F52%30.03 "Hg
* Reported Apr 12 10:00 PM — Apr 27 10:00 PM, Cranbrook, Weather by CustomWeather, © 2015

Note: Actual official high and low records may vary slightly from our data, if they occured in-between our weather recording intervals... More about our weather records

Advertising

Cranbrook weather history for previous 24 hours

 ConditionsComfort  
Time TempWeatherWind HumidityBarometerVisibility
10:00 PM
Mon, Apr 27
57 °FScattered clouds.3 mph39%30.21 "Hg25 mi
9:00 PM59 °FScattered clouds.8 mph36%30.20 "Hg25 mi
8:00 PM63 °FPartly sunny.2 mph30%30.20 "Hg25 mi
7:00 PM66 °FPartly sunny.7 mph28%30.22 "Hg25 mi
6:00 PM66 °FPartly sunny.5 mph28%30.23 "Hg25 mi
5:00 PM66 °FBroken clouds.6 mph28%30.23 "Hg25 mi
4:00 PM64 °FScattered clouds.6 mph30%30.25 "Hg25 mi
3:00 PM63 °FBroken clouds.8 mph30%30.27 "Hg25 mi
2:00 PM61 °FPartly sunny.5 mph29%30.30 "Hg25 mi
1:00 PM57 °FPartly sunny.3 mph33%30.32 "Hg25 mi
12:00 PM54 °FScattered clouds.5 mph41%30.34 "Hg25 mi
11:00 AM50 °FPartly sunny.7 mph47%30.37 "Hg25 mi
10:00 AM46 °FPartly sunny.3 mph53%30.37 "Hg25 mi
9:00 AM41 °FBroken clouds.3 mph57%30.38 "Hg25 mi
8:00 AM36 °FPassing clouds.No wind70%30.37 "Hg25 mi
7:00 AM28 °FPassing clouds.2 mph86%30.36 "Hg25 mi
6:00 AM30 °FPassing clouds.No wind75%30.34 "Hg25 mi
5:00 AM32 °FPassing clouds.5 mph75%30.32 "Hg25 mi
4:00 AM34 °FPassing clouds.2 mph65%30.31 "Hg25 mi
3:00 AM34 °FPassing clouds.2 mph70%30.30 "Hg25 mi
2:00 AM32 °FPassing clouds.No wind69%30.29 "Hg25 mi
1:00 AM39 °FPassing clouds.5 mph56%30.27 "Hg25 mi
12:00 AM41 °FPassing clouds.6 mph57%30.24 "Hg25 mi
11:00 PM
Sun, Apr 26
39 °FPassing clouds.6 mph65%30.25 "Hg25 mi
Weather by CustomWeather, © 2015

See weather overviewHow to use our weather pages